Location: Unspecified
(0.0000°N, 0.0000°E)
Time: 17:02:21
(UTC+00:00)

STARLINK-5751 - Visible Passes

Search period start: 14 January 2026 00:00
Search period end: 24 January 2026 00:00
Orbit: 558 x 560 km, 43.0° (Epoch: 14 January)

Date Brightness Start Highest point End Pass type
(mag) Time Alt. Az. Time Alt. Az. Time Alt. Az.
19 Jan 5.3 19:27:46 10° NNW 19:29:34 20° N 19:29:34 20° N visible
20 Jan 3.9 19:24:16 10° NNW 19:28:18 46° NE 19:28:57 42° ENE visible
21 Jan 3.5 19:21:03 10° NW 19:25:16 84° NE 19:28:45 15° SE visible
22 Jan 4.4 19:18:06 10° WNW 19:22:13 54° SW 19:26:21 10° SSE visible
23 Jan 6.7 05:37:38 10° S 05:40:12 16° SE 05:42:45 10° E visible
23 Jan 5.6 19:15:27 10° WNW 19:19:11 30° SW 19:22:56 10° SSE visible
